星链-36065(STARLINK-36065)

导读 | 豆包AI

STARLINK-36065是美国SpaceX星链星座的组网卫星,于2025年12月4日发射升空,属于星链低轨互联网星座的补充卫星。星链项目旨在构建覆盖全球的卫星互联网,该卫星入轨后,将进一步完善星座网络覆盖能力,为全球用户提供高速低延迟的宽带互联服务,延续星链项目的部署进度。

基本信息
目录编号:
66898
目录名称:
STARLINK-36065
国际标识:
2025-283W
轨道中心:
EARTH
卫星名称:
星链-36065
卫星全名:
星链-36065(STARLINK-36065)
卫星状态:
在轨 (已飞行100 天)
发射日期:
2025-12-04 UTC
国别 :
美国 (US)
星等 :
--
轨道信息
数据来源 国际轨道数据 AOE轨道数据
星历时间 2026-03-14T06:44:36+0800
8小时前
查看轨道信息
2026-03-10T11:00:00+0800
4天前
查看轨道信息
半长轴 6853.302km 6853.383km
偏心率 0.0001575 0.0001227
轨道倾角 53.161° 53.160°
近地点辐角 111.226° 95.023°
升交点赤经 4.560° 22.319°
平近点角 248.891° 75.587°
近地点 474.085km 474.405km
远地点 476.245km 476.087km
周期 94.104分钟 94.106分钟
每日圈数 15.302171 15.301897
详细信息
固有亮度:
5
最大亮度:
2.5
卫星平台:
Starlink V1.0
覆盖范围:
全球
运营商:
太空探索技术公司
运营商所在国:
美国
制造商(研发单位):
太空探索技术公司
制造商所在国:
美国
使用方式:
暂无
卫星简介
Starlink 计划是 SpaceX 推出的全球卫星互联网项目,通过发射低轨道卫星,为全球尤其是偏远地区提供高速、低延迟的互联网服务。自 2019 年起,Starlink 已部署数千颗卫星,旨在缩小全球数字鸿沟,推动互联网普及。该项目还为军事、航空等行业提供通信支持,带来广泛经济效益。
2D轨道图
3D轨道图
轨道高度分析图
轨道倾角分析图
轨道综合分析图
查看轨道综合分析图